GW3787 Weather Reports


time (UTC)temp
C
wind
direction
speed
KPH
gust
KPH
rain 1hr
cm
rain 24hr
cm
rain mn
cm
humidity
%
barometer
mb
20260505121550 0 17 0.0 0.0 0.00 0.00 0.00 74 1019.1
20260505120051 0 17 0.0 3.2 0.00 0.00 0.00 74 1019.0
20260505114548 0 17 0.0 0.0 0.00 0.00 0.00 73 1018.9
20260505113044 0 17 0.0 0.0 0.00 0.00 0.00 71 1019.0
20260505111541 0 17 0.0 1.6 0.00 0.00 0.00 68 1018.8
20260505101539 2 18 0.0 8.0 0.00 0.00 0.00 62 1018.7
20260505100030 2 22 0.0 6.4 0.00 0.00 0.00 60 1018.6
20260505094530 2 22 0.0 4.8 0.00 0.00 0.00 61 1018.6
20260505093027 2 22 0.0 6.4 0.00 0.00 0.00 62 1018.5
20260505091526 2 22 0.0 3.2 0.00 0.00 0.00 62 1018.5
20260505090024 2 22 0.0 3.2 0.00 0.00 0.00 63 1018.4
20260505084533 1 22 0.0 4.8 0.00 0.00 0.00 63 1018.3
20260505083022 2 22 0.0 1.6 0.00 0.00 0.00 63 1018.1
20260505081521 1 22 0.0 3.2 0.00 0.00 0.00 64 1017.9
20260505080020 2 22 0.0 1.6 0.00 0.00 0.00 62 1017.7
20260505074517 2 22 0.0 0.0 0.00 0.00 0.00 61 1017.7
20260505073018 2 22 0.0 0.0 0.00 0.00 0.00 60 1017.5
20260505071513 2 22 0.0 0.0 0.00 0.00 0.00 59 1017.7
20260505070012 3 22 0.0 1.6 0.00 0.00 0.00 58 1017.6
20260505064508 3 22 0.0 4.8 0.00 0.00 0.00 56 1017.8
20260505063009 3 22 0.0 9.7 0.00 0.00 0.00 55 1017.6
20260505061502 3 22 3.2 6.4 0.00 0.00 0.00 54 1017.5
20260505060058 4 22 0.0 4.8 0.00 0.00 0.00 54 1017.2
20260505054610 4 22 0.0 4.8 0.00 0.00 0.00 55 1017.1
20260505053101 3 10 1.6 12.9 0.00 0.00 0.00 59 1017.1
20260505051555 2 47 0.0 0.0 0.00 0.00 0.00 66 1017.2
20260505041552 3 46 0.0 0.0 0.00 0.00 0.00 56 1016.3
20260505040050 3 46 0.0 4.8 0.00 0.00 0.00 56 1016.1
20260505034538 3 46 0.0 0.0 0.00 0.00 0.00 55 1016.1
20260505033034 4 46 0.0 6.4 0.00 0.00 0.00 53 1015.8
20260505031539 5 46 0.0 9.7 0.00 0.00 0.00 51 1015.1
20260505030027 5 44 1.6 9.7 0.00 0.00 0.00 50 1015.0
20260505024525 5 49 6.4 11.3 0.00 0.00 0.00 48 1014.8
20260505023022 6 46 4.8 16.1 0.00 0.00 0.00 47 1014.6
20260505021520 6 33 4.8 14.5 0.00 0.00 0.00 45 1014.3
20260505020018 7 39 8.0 20.9 0.00 0.00 0.00 43 1014.1
20260505014516 8 47 12.9 27.4 0.00 0.00 0.00 40 1013.8
20260505013013 8 47 12.9 32.2 0.00 0.00 0.00 38 1013.5
20260505011512 9 41 12.9 32.2 0.00 0.00 0.00 35 1013.2
20260505010010 10 25 19.3 38.6 0.00 0.00 0.00 32 1012.9
20260505004510 10 35 16.1 33.8 0.00 0.00 0.00 30 1012.8
20260505003008 11 26 12.9 41.8 0.00 0.00 0.00 26 1012.7
20260505001507 11 18 24.1 37.0 0.00 0.00 0.00 25 1012.6
20260505000007 11 10 12.9 38.6 0.00 0.00 0.00 25 1012.4
20260504234506 11 31 17.7 37.0 0.00 0.00 0.00 24 1012.3
20260504233003 12 5 16.1 33.8 0.00 0.00 0.00 22 1012.3
20260504231502 12 31 19.3 40.2 0.00 0.00 0.00 22 1012.3
20260504230002 12 27 22.5 45.1 0.00 0.00 0.00 22 1012.0
20260504224612 12 5 11.3 35.4 0.00 0.00 0.00 24 1011.8
20260504223134 11 5 30.6 49.9 0.00 0.00 0.00 24 1011.9
20260504221558 12 21 16.1 43.5 0.00 0.00 0.00 24 1011.5
20260504220058 12 26 20.9 49.9 0.00 0.00 0.00 27 1011.5
20260504214556 12 45 22.5 43.5 0.00 0.00 0.00 28 1011.4
20260504213104 12 19 9.7 37.0 0.00 0.00 0.00 29 1011.5
20260504211554 12 324 9.7 29.0 0.00 0.00 0.00 30 1011.7
20260504210058 12 360 14.5 41.8 0.00 0.00 0.00 30 1011.7
20260504204554 11 354 8.0 38.6 0.00 0.00 0.00 34 1012.0
20260504203106 10 20 17.7 43.5 0.00 0.00 0.00 35 1012.0
20260504201555 11 10 19.3 43.5 0.00 0.00 0.00 33 1011.8
20260504200049 11 29 9.7 37.0 0.00 0.00 0.00 34 1011.7
20260504194546 12 341 11.3 35.4 0.00 0.00 0.00 34 1011.6
20260504193046 11 5 12.9 33.8 0.00 0.00 0.00 35 1011.6
20260504191548 11 18 14.5 40.2 0.00 0.00 0.00 34 1011.5
20260504190044 11 360 9.7 37.0 0.00 0.00 0.00 38 1011.5
20260504184537 11 327 12.9 40.2 0.00 0.00 0.00 39 1011.5
20260504183037 11 360 9.7 29.0 0.00 0.00 0.00 39 1011.6
20260504181543 10 31 12.9 37.0 0.00 0.00 0.00 41 1011.5
20260504180035 10 20 17.7 33.8 0.00 0.00 0.00 39 1011.6
20260504174533 11 14 8.0 37.0 0.00 0.00 0.00 40 1011.5
20260504173032 10 356 9.7 32.2 0.00 0.00 0.00 39 1011.3
20260504171530 10 25 16.1 33.8 0.00 0.00 0.00 40 1011.2